Location: Hautebrousse
(45.1162°N, 2.0482°E)
Time: 14:09:52
(UTC+00:00)

Daily predictions for brighter satellites

Satellite Brightness Start Highest point End
(mag) Time Altitude Azimuth Time Altitude Azimuth Time Altitude Azimuth
Cosmos 2219 4.3 19:09:11 10° SSE 19:13:18 21° E 19:17:26 10° NE
BREEZE-M DEB (TANK) 3.3 19:11:04 10° WSW 19:14:21 77° NNW 19:24:44 10° ENE
Cosmos 2333 Rocket 2.6 19:10:47 10° NNW 19:16:30 68° WSW 19:22:11 10° SSE
SJ-6B 3.1 19:14:36 10° SE 19:18:10 45° ENE 19:21:48 10° N
SAR-Lupe-4 3.6 19:15:30 10° NNE 19:19:07 86° WNW 19:22:41 10° SSW
Cosmos 1689 Rocket 3.0 19:16:33 10° N 19:19:19 51° WNW 19:22:02 10° SSW
FALCON 9 DEB 3.8 19:18:51 10° SSW 19:21:27 26° SE 19:24:04 10° ENE
CZ-2C R/B 3.2 19:16:26 10° N 19:21:36 63° WNW 19:26:48 10° SSW
Cosmos 2098 Rocket 4.5 19:14:41 10° N 19:22:02 88° E 19:29:22 10° S
Cosmos 389 Rocket 3.5 19:19:14 10° SSE 19:22:13 26° E 19:25:15 10° NE
Cosmos 2322 4.4 19:17:48 10° NNW 19:23:21 57° WSW 19:28:52 10° S
ERS-2 2.1 19:20:11 10° NNE 19:23:51 88° WNW 19:27:29 10° SSW
CSL-04 Rocket 4.1 19:19:16 10° S 19:24:30 66° WSW 19:29:46 10° NNW
Ariane Rocket 3.5 19:19:55 10° SE 19:24:40 44° ENE 19:29:28 10° N
Cosmos 614 Rocket 4.1 19:20:33 10° S 19:25:30 52° ESE 19:30:28 10° NNE
Cosmos 2251 Rocket 3.5 19:21:53 10° SSW 19:27:13 75° ESE 19:32:34 10° NNE
FALCON 9 DEB 4.2 19:24:41 10° W 19:27:59 46° NNW 19:31:20 10° NE
ATLAS 3B R/B 2.9 19:23:42 10° NW 19:30:46 84° SW 19:38:07 10° SSE
Cosmos 2279 Rocket 4.3 19:26:36 10° SSE 19:32:25 46° E 19:38:18 10° NNE
MOS 1 4.4 19:32:27 10° SSE 19:37:59 61° ENE 19:43:34 10° N
Cosmos-2242 4.5 19:35:48 11° SE 19:38:43 19° E 19:41:47 10° NE
Cosmos 1980 4.0 19:33:18 10° NNW 19:38:54 55° ENE 19:44:11 11° SE
SL-16 R/B 3.7 19:34:43 10° N 19:39:10 23° NE 19:43:25 11° E
Cosmos 2026 Rocket 4.0 19:33:33 10° N 19:39:41 88° E 19:45:49 10° S
SME Rocket 4.0 19:37:02 10° N 19:40:59 58° WNW 19:46:13 10° SSW
Cosmos 2151 4.1 19:37:29 10° NNE 19:41:12 27° ENE 19:44:09 14° SE
USA 215 4.3 19:35:37 10° E 19:41:33 38° NNE 19:47:30 10° NW
FALCON 9 DEB 3.4 19:40:23 10° SSW 19:43:13 34° SE 19:46:02 10° ENE
SPOT 3 Rocket 4.3 19:40:39 12° SE 19:45:00 36° ENE 19:49:41 10° N
Cosmos 1455 3.1 19:42:44 10° SSW 19:46:23 51° W 19:50:03 10° N
COSMOS 2455 4.0 19:42:54 10° SSE 19:47:18 22° ESE 19:51:42 10° ENE
SL-4 R/B 2.5 19:45:59 10° SSW 19:50:03 44° SE 19:54:26 10° ENE
IRS-1A Rocket 4.3 19:44:44 10° SSE 19:50:19 78° ENE 19:56:03 10° NNW
USA 186 3.2 19:50:10 10° SSW 19:53:15 38° W 19:56:13 10° NNW
Cosmos 2219 Rocket 3.4 19:48:11 10° NW 19:53:29 41° WSW 19:58:44 10° S
BREEZE M DEB (TANK) 4.3 19:50:50 10° S 19:53:51 27° ESE 20:00:33 10° ENE
BREEZE-M DEB (TANK) 4.1 19:52:55 10° WSW 19:54:40 16° SSW 19:57:05 10° SSE
IGS 5A 4.3 19:54:20 17° SE 19:56:57 34° ENE 20:00:44 10° N
Cosmos 1076 Rocket 3.5 19:53:13 10° N 19:57:34 73° E 20:01:45 11° SSE
COSMOS 2428 3.7 19:52:20 10° NW 19:57:47 45° WSW 20:03:11 10° S
OBJECT-B 1.5 19:54:48 10° S 19:57:58 52° W 20:01:09 10° NNW
ATLAS 5 CENTAUR R/B 2.3 19:57:20 10° WNW 19:59:01 26° SW 20:01:00 12° S
Cosmos 1634 Rocket 4.4 19:56:17 10° SSW 20:02:31 68° W 20:08:45 10° N
Cosmos 2292 Rocket 4.1 19:57:43 10° N 20:04:09 76° E 20:08:34 12° SSE
Cosmos 2344 3.8 19:57:12 10° SW 20:04:39 72° NW 20:12:37 10° NE
Cosmos 1356 3.7 20:02:01 10° NNW 20:05:26 67° W 20:08:40 11° S
ARIANE 5 R/B 4.2 20:04:04 16° E 20:05:50 21° ENE 20:09:04 10° NNE
Cosmos 407 Rocket 3.4 20:01:00 10° S 20:06:03 64° ESE 20:11:11 10° NNE
IRIDIUM 104 4.3 20:05:08 10° S 20:10:19 74° E 20:15:33 10° N
Cosmos 1023 Rocket 4.4 20:06:07 10° S 20:11:07 64° ESE 20:16:10 10° NNE
Meteor 2-3 Rocket 4.0 20:08:27 10° N 20:14:06 53° ENE 20:17:47 21° SE
Cosmos 44 Rocket 4.1 20:13:12 10° S 20:17:34 30° ESE 20:22:04 10° NE
Cosmos 405 Rocket 3.6 20:13:44 10° NNW 20:17:35 49° W 20:21:21 10° S
NOSS 0 Rocket 4.5 20:12:46 10° NW 20:18:51 57° WSW 20:24:40 11° S
Cosmos 1140 Rocket 3.3 20:14:13 10° SSW 20:19:19 73° ESE 20:24:27 10° NNE
IRIDIUM 114 4.3 20:14:15 10° S 20:19:28 89° E 20:24:43 10° N
Cosmos 1812 Rocket 3.6 20:16:51 10° S 20:21:17 84° W 20:25:47 10° N
Cosmos 1954 Rocket 4.3 20:19:29 14° S 20:23:29 42° ESE 20:28:19 10° NE
CZ-2C R/B 3.9 20:21:10 10° NNE 20:25:27 47° E 20:27:43 25° SSE
Timation 2 Rocket 4.0 20:19:39 10° SSW 20:26:12 71° ESE 20:32:29 10° NNE
Cosmos 2237 Rocket 2.4 20:21:07 10° NNW 20:26:44 71° WSW 20:30:48 19° SSE
IRIDIUM 103 4.5 20:23:25 10° S 20:28:37 77° W 20:33:52 10° N
Cosmos 2180 Rocket 4.5 20:22:41 10° S 20:28:52 86° W 20:35:02 10° N
Abrixas rocket 3.9 20:27:44 10° WNW 20:28:20 16° NW 20:28:20 16° NW
Meteor 2-21 4.4 20:23:03 10° N 20:29:08 89° E 20:34:06 16° S
Cosmos 2263 Rocket 4.2 20:34:38 11° ENE 20:34:38 11° ENE 20:35:10 10° ENE
Spot 2 Rocket 4.0 20:32:07 29° ESE 20:34:09 43° ENE 20:38:56 10° N
BREEZE M DEB (TANK) 3.0 20:25:18 10° WSW 20:34:13 70° NNW 20:36:34 17° ENE
CARTOSAT-1 4.5 20:33:28 29° E 20:34:27 32° ENE 20:38:18 10° N
Cosmos 1766 Rocket 4.0 20:31:13 10° N 20:35:21 41° ENE 20:36:22 35° ESE
FALCON 9 DEB 3.0 20:37:15 10° WSW 20:40:18 69° NNW 20:41:37 30° NE
Cosmos 2227 Rocket 2.1 20:35:18 10° SSW 20:40:58 90° ESE 20:46:41 10° NNE
Cosmos 2082 3.8 20:37:14 18° S 20:41:10 49° ESE 20:46:34 10° NE
Cosmos 1633 3.1 20:38:08 10° NNW 20:41:40 55° W 20:43:19 27° SSW
Okean 3 Rocket 3.8 20:40:07 10° N 20:44:34 53° ENE 20:45:39 42° ESE
FALCON 9 DEB 3.5 20:41:59 10° WSW 20:44:57 53° NNW 20:46:28 24° NE
Cosmos 1655 Rocket 4.1 20:40:02 10° N 20:46:20 79° W 20:50:54 19° S
Lacrosse 5 rocket 3.7 20:43:31 10° NNW 20:46:35 19° NNE 20:49:44 10° ENE
Cosmos 2297 Rocket 2.6 20:42:04 10° SW 20:47:40 65° WNW 20:53:19 10° NNE
Cosmos 1869 3.3 20:47:58 52° ESE 20:48:24 55° E 20:52:16 10° NNE
Resurs 01 Rocket 2.2 20:46:10 22° S 20:48:51 56° W 20:53:15 10° NNW
Meteor 1-4 Rocket 2.8 20:50:30 47° ENE 20:50:30 47° ENE 20:53:29 10° NNE
Genesis I 3.7 20:47:37 10° NW 20:51:33 56° WSW 20:52:33 42° S
Cosmos 2219 3.7 20:51:25 10° SW 20:56:57 60° WNW 21:02:32 10° NNE
FALCON 9 DEB 4.0 20:54:09 10° W 20:57:02 41° NNW 20:58:12 27° NNE
Cosmos 2084 Rocket 4.1 20:56:24 10° SW 21:00:16 51° NW 21:04:15 10° NNE
Cosmos 1763 Rocket 3.7 20:58:20 10° NNW 21:03:17 51° ENE 21:04:17 44° E
Terra 2.6 21:03:52 35° E 21:04:21 36° ENE 21:08:42 10° N
Meteor 2-8 Rocket 4.3 21:02:56 28° S 21:06:21 80° E 21:12:29 10° N
BREEZE-M DEB (TANK) 3.4 21:07:30 10° WNW 21:08:46 31° W 21:08:46 31° W
Cosmos 540 Rocket 4.3 21:06:19 10° N 21:10:58 34° ENE 21:11:41 32° ENE
SPOT 5 2.8 21:14:08 57° ESE 21:14:35 61° ENE 21:19:22 10° N
Cosmos-2242 4.3 21:12:35 14° SW 21:15:58 39° WNW 21:20:01 10° N
SPOT 1/Viking Rocket 3.8 21:14:17 37° S 21:16:16 64° WSW 21:21:29 10° NNW
Meteor 2-2 Rocket 4.4 21:15:41 49° SE 21:16:33 54° E 21:22:05 10° NNE
NOSS 3-1 (C) 4.2 21:09:19 10° NW 21:16:41 63° NE 21:20:24 35° ESE
FALCON 9 DEB 4.4 21:16:08 10° W 21:18:54 35° NNW 21:18:54 35° NNW
STPSAT 2 (USA 217) 4.4 21:14:29 10° NNW 21:19:02 83° ENE 21:19:21 76° SE
Cosmos 1842 Rocket 4.0 21:20:26 47° ENE 21:20:26 47° ENE 21:24:10 10° NNE
Cosmos 676 Rocket 4.4 21:17:21 11° SSW 21:22:15 62° WNW 21:27:24 10° NNE
SL-16 R/B 2.3 21:18:10 10° NNW 21:23:50 70° WSW 21:25:19 49° S
USA 215 3.2 21:21:35 42° ESE 21:24:05 81° NE 21:30:39 10° NW
SL-4 R/B 2.9 21:25:19 10° W 21:29:43 55° NNW 21:33:32 15° NE
SL-08 ROCKET BODY 4.5 21:24:52 10° N 21:30:49 56° ENE 21:31:36 52° ESE
COSMOS 2455 3.1 21:26:38 10° SW 21:32:39 70° NW 21:38:40 10° NNE
ERS-1 Rocket 2.8 21:33:53 70° S 21:34:28 84° WSW 21:39:31 10° NNW
Cosmos 1408 Rocket 3.5 21:30:46 10° N 21:34:52 79° NNW 21:34:52 79° NNW
Cosmos 2221 2.8 21:41:54 60° NNE 21:41:54 60° NNE 21:45:28 10° N
ARIANE 5 R/B 3.4 21:41:36 42° WSW 21:42:00 44° W 21:46:12 10° NNW
Cosmos 1862 3.9 21:38:23 10° N 21:41:30 54° N 21:41:30 54° N
Meteor 2-15 Rocket 4.3 21:43:55 57° S 21:45:18 90° NNE 21:51:25 10° N
Cosmos 1943 3.5 21:44:14 10° NNW 21:49:43 50° ENE 21:50:06 50° ENE
Cosmos 1745 Rocket 4.1 21:46:42 10° N 21:52:56 59° ENE 21:53:25 57° E
Cosmos 1570 Rocket 4.4 21:48:12 10° NNW 21:53:15 49° ENE 21:53:15 49° ENE
Cosmos 1743 Rocket 4.1 21:49:37 10° N 21:53:02 53° N 21:53:02 53° N
SeaSat 1 4.4 21:49:56 10° NE 21:51:18 17° ENE 21:51:18 17° ENE
Cosmos 44 Rocket 4.4 21:54:05 10° WSW 21:58:57 45° NW 22:03:58 10° NNE
Cosmos 1741 Rocket 4.1 22:05:12 67° W 22:05:35 70° WNW 22:10:53 10° NNE
S3M 3.9 22:05:25 68° ESE 22:05:41 69° E 22:12:02 10° NNE
BREEZE-M DEB (TANK) 3.8 22:00:27 10° WNW 22:06:19 50° WNW 22:06:19 50° WNW
Cosmos 1850 Rocket 4.3 22:08:06 60° W 22:08:36 63° WNW 22:13:50 10° NNE
Cosmos 1500 Rocket 4.3 22:07:35 10° NNW 22:11:06 51° NW 22:11:06 51° NW
Cosmos 2263 Rocket 2.2 22:16:15 75° NNE 22:16:15 75° NNE 22:21:22 10° NNE
Aureole 1 Rocket 3.7 22:17:34 66° WNW 22:17:39 66° WNW 22:22:17 10° NNE
Cosmos 1386 Rocket 4.3 22:16:16 10° N 22:22:21 88° W 22:22:22 87° WSW
USA 229 DEB 3.8 22:18:41 10° NW 22:26:03 84° SW 22:27:01 71° SSE
USA 229 3.8 22:18:46 10° NW 22:26:09 85° SW 22:27:08 71° SSE
Lacrosse 5 rocket 2.8 22:22:23 10° NW 22:25:34 38° N 22:25:34 38° N
Cosmos 2208 Rocket 4.3 22:28:11 10° NNW 22:32:47 66° NNW 22:32:47 66° NNW
Cosmos 1553 Rocket 4.4 22:33:03 47° WSW 22:34:04 52° WNW 22:40:02 10° N
ALOS 2 4.4 22:35:37 25° NNE 22:35:37 25° NNE 22:38:05 10° N
Cosmos 841 Rocket 4.2 22:32:09 10° NNW 22:36:20 46° WNW 22:36:20 46° WNW
Cosmos 1603 4.0 22:32:51 10° NNW 22:37:52 62° WNW 22:37:52 62° WNW
Terra 3.4 22:42:44 27° W 22:42:44 27° W 22:46:13 10° NW
NOSS 3-1 (A) 4.0 22:36:28 10° NW 22:44:04 75° SW 22:45:03 68° S
Meteor 2-17 Rocket 4.5 22:49:51 10° N 22:55:34 76° NW 22:55:34 76° NW
USA 215 4.4 23:08:55 29° WSW 23:08:55 29° WSW 23:13:14 10° WNW
SL-4 R/B 3.9 23:05:45 10° WNW 23:09:09 33° NNW 23:09:09 33° NNW
Cosmos 2184 Rocket 4.4 23:09:15 10° N 23:14:58 54° ENE 23:14:58 54° ENE
Cosmos 2315 Rocket 4.2 23:16:01 68° WNW 23:16:01 68° WNW 23:22:06 10° N
ATLAS 5 CENTAUR R/B 4.0 23:19:44 10° NNW 23:24:11 25° NE 23:27:06 18° ENE
SeaSat 1 3.5 23:27:08 10° NNE 23:31:05 41° NNW 23:31:05 41° NNW
Cosmos 1844 4.4 23:41:40 49° NE 23:41:40 49° NE 23:45:48 10° NNE
Cosmos 2074 Rocket 4.1 23:35:39 10° N 23:41:12 71° N 23:41:12 71° N
USA 281 3.7 23:43:09 48° E 23:43:57 50° ENE 23:50:17 10° NNW
